ARG1483 SANT-SAEZ

Flight info

Callsign ARG1483
Flight time 1h 33m
Altitude 35000
Route PUBER3E PUBER UL550 ROS UT672 MULTA UW24 SNT SNT7X
Aircraft B738/M-SDE2E3FGHIRWXY/LB1

Departure

Time 2026-05-03 21:40
Airport Teniente Benjamín Matienzo International Airport (SANT)

Arrival

Time 2026-05-03 23:13
Airport Ezeiza International Airport - Ministro Pistarini (SAEZ)
Time Latitude Longitude Altitude Speed Heading
2026-05-03 20:36 -26.83529 -65.10751 1491 ft 0 kts 280°
2026-05-03 21:26 -26.83530 -65.10744 1491 ft 4 kts 283°
2026-05-03 21:26 -26.83539 -65.10717 1491 ft 4 kts 311°
2026-05-03 21:27 -26.83559 -65.10702 1484 ft 4 kts
2026-05-03 21:27 -26.83566 -65.10702 1483 ft 1 kts 10°
2026-05-03 21:33 -26.83565 -65.10702 1483 ft 0 kts 10°
2026-05-03 21:33 -26.83547 -65.10698 1476 ft 6 kts 10°
2026-05-03 21:34 -26.83493 -65.10685 1481 ft 10 kts 17°
2026-05-03 21:34 -26.83427 -65.10638 1486 ft 13 kts 39°
2026-05-03 21:34 -26.83355 -65.10570 1484 ft 14 kts 40°
2026-05-03 21:34 -26.83284 -65.10504 1480 ft 13 kts 40°
2026-05-03 21:35 -26.83215 -65.10440 1484 ft 13 kts 40°
2026-05-03 21:35 -26.83148 -65.10377 1486 ft 12 kts 40°
2026-05-03 21:35 -26.83084 -65.10317 1475 ft 12 kts 37°
2026-05-03 21:35 -26.83010 -65.10273 1491 ft 12 kts 14°
2026-05-03 21:36 -26.82927 -65.10256 1487 ft 13 kts 10°
2026-05-03 21:36 -26.82823 -65.10235 1483 ft 16 kts
2026-05-03 21:36 -26.82715 -65.10215 1486 ft 16 kts
2026-05-03 21:36 -26.82610 -65.10194 1483 ft 15 kts 10°
2026-05-03 21:37 -26.82510 -65.10177 1488 ft 12 kts 360°
2026-05-03 21:37 -26.82428 -65.10201 1484 ft 12 kts 347°
2026-05-03 21:37 -26.82353 -65.10192 1483 ft 9 kts 30°
2026-05-03 21:37 -26.82363 -65.10146 1482 ft 8 kts 174°
2026-05-03 21:38 -26.82376 -65.10148 1487 ft 0 kts 191°
2026-05-03 21:39 -26.82596 -65.10192 1482 ft 67 kts 190°
2026-05-03 21:39 -26.83268 -65.10321 1478 ft 129 kts 189°
2026-05-03 21:39 -26.84315 -65.10530 1632 ft 165 kts 191°
2026-05-03 21:40 -26.85398 -65.10739 2473 ft 155 kts 187°
2026-05-03 21:40 -26.86523 -65.10870 2867 ft 176 kts 179°
2026-05-03 21:40 -26.87771 -65.10805 3301 ft 192 kts 169°
2026-05-03 21:40 -26.89175 -65.10490 3558 ft 217 kts 162°
2026-05-03 21:41 -26.90686 -65.09937 3768 ft 239 kts 156°
2026-05-03 21:41 -26.92255 -65.09092 3956 ft 262 kts 147°
2026-05-03 21:41 -26.93859 -65.07983 4388 ft 278 kts 145°
2026-05-03 21:41 -26.95485 -65.06800 5175 ft 281 kts 145°
2026-05-03 21:42 -26.97144 -65.05587 5888 ft 288 kts 146°
2026-05-03 21:42 -26.98821 -65.04366 6579 ft 294 kts 146°
2026-05-03 21:42 -26.99982 -65.03524 7050 ft 295 kts 147°
2026-05-03 21:42 -27.02263 -65.01877 8163 ft 292 kts 148°
2026-05-03 21:43 -27.03972 -65.00647 8999 ft 290 kts 149°
2026-05-03 21:43 -27.05668 -64.99429 9778 ft 290 kts 150°
2026-05-03 21:43 -27.06815 -64.98606 10228 ft 291 kts 150°
2026-05-03 21:43 -27.08555 -64.97362 10448 ft 311 kts 150°
2026-05-03 21:44 -27.10442 -64.96015 10599 ft 330 kts 150°
2026-05-03 21:44 -27.12432 -64.94592 10745 ft 349 kts 150°
2026-05-03 21:44 -27.14513 -64.93100 11091 ft 358 kts 150°
2026-05-03 21:44 -27.16632 -64.91578 11596 ft 362 kts 150°
2026-05-03 21:45 -27.18763 -64.90046 12171 ft 365 kts 150°
2026-05-03 21:45 -27.20919 -64.88496 12707 ft 368 kts 150°
2026-05-03 21:45 -27.23089 -64.86936 13238 ft 372 kts 150°
2026-05-03 21:45 -27.25285 -64.85357 13774 ft 376 kts 150°
2026-05-03 21:46 -27.27497 -64.83767 14258 ft 379 kts 151°
2026-05-03 21:46 -27.29723 -64.82165 14758 ft 381 kts 151°
2026-05-03 21:46 -27.31940 -64.80570 15251 ft 384 kts 151°
2026-05-03 21:46 -27.34199 -64.78944 15740 ft 387 kts 151°
2026-05-03 21:47 -27.36476 -64.77304 16219 ft 390 kts 151°
2026-05-03 21:47 -27.38768 -64.75652 16706 ft 392 kts 151°
2026-05-03 21:47 -27.41072 -64.73990 17202 ft 395 kts 151°
2026-05-03 21:47 -27.43392 -64.72317 17734 ft 396 kts 151°
2026-05-03 21:48 -27.45712 -64.70641 18245 ft 398 kts 151°
2026-05-03 21:48 -27.48054 -64.68950 18637 ft 401 kts 151°
2026-05-03 21:48 -27.50415 -64.67245 19043 ft 404 kts 151°
2026-05-03 21:48 -27.52788 -64.65530 19451 ft 407 kts 151°
2026-05-03 21:49 -27.55194 -64.63831 19858 ft 408 kts 153°
2026-05-03 21:49 -27.57640 -64.62181 20275 ft 410 kts 153°
2026-05-03 21:49 -27.60102 -64.60549 20685 ft 413 kts 154°
2026-05-03 21:49 -27.62588 -64.58904 21082 ft 416 kts 154°
2026-05-03 21:50 -27.65089 -64.57244 21492 ft 418 kts 153°
2026-05-03 21:50 -27.67602 -64.55568 21895 ft 421 kts 153°
2026-05-03 21:50 -27.70127 -64.53877 22275 ft 424 kts 153°
2026-05-03 21:50 -27.72669 -64.52170 22653 ft 426 kts 153°
2026-05-03 21:51 -27.75228 -64.50449 23027 ft 429 kts 153°
2026-05-03 21:51 -27.77800 -64.48717 23400 ft 432 kts 153°
2026-05-03 21:51 -27.80396 -64.46967 23734 ft 435 kts 153°
2026-05-03 21:51 -27.82999 -64.45212 24040 ft 437 kts 154°
2026-05-03 21:52 -27.85585 -64.43467 24355 ft 439 kts 154°
2026-05-03 21:52 -27.88216 -64.41691 24676 ft 441 kts 154°
2026-05-03 21:52 -27.90863 -64.39903 24987 ft 443 kts 154°
2026-05-03 21:52 -27.93519 -64.38109 25274 ft 446 kts 154°
2026-05-03 21:53 -27.96193 -64.36301 25570 ft 448 kts 154°
2026-05-03 21:53 -27.98873 -64.34488 25884 ft 450 kts 154°
2026-05-03 21:53 -28.01568 -64.32663 26197 ft 452 kts 154°
2026-05-03 21:53 -28.04273 -64.30831 26483 ft 454 kts 155°
2026-05-03 21:54 -28.06994 -64.28986 26757 ft 456 kts 155°
2026-05-03 21:54 -28.09722 -64.27136 27024 ft 458 kts 155°
2026-05-03 21:54 -28.12433 -64.25297 27303 ft 460 kts 155°
2026-05-03 21:54 -28.15184 -64.23428 27580 ft 462 kts 155°
2026-05-03 21:55 -28.17950 -64.21548 27843 ft 465 kts 155°
2026-05-03 21:55 -28.20725 -64.19661 28105 ft 467 kts 155°
2026-05-03 21:55 -28.23519 -64.17760 28368 ft 468 kts 155°
2026-05-03 21:55 -28.26322 -64.15853 28609 ft 470 kts 155°
2026-05-03 21:56 -28.29134 -64.13940 28861 ft 472 kts 155°
2026-05-03 21:56 -28.31961 -64.12016 29104 ft 474 kts 155°
2026-05-03 21:56 -28.34796 -64.10086 29346 ft 476 kts 155°
2026-05-03 21:56 -28.37644 -64.08145 29602 ft 478 kts 155°
2026-05-03 21:57 -28.40496 -64.06199 29893 ft 479 kts 155°
2026-05-03 21:57 -28.43345 -64.04252 30233 ft 477 kts 155°
2026-05-03 21:57 -28.46192 -64.02304 30589 ft 475 kts 155°
2026-05-03 21:57 -28.49017 -64.00371 30936 ft 473 kts 156°
2026-05-03 21:58 -28.51840 -63.98439 31234 ft 472 kts 156°
2026-05-03 21:58 -28.54660 -63.96509 31503 ft 472 kts 156°
2026-05-03 21:58 -28.57441 -63.94605 31786 ft 472 kts 156°
2026-05-03 21:58 -28.60251 -63.92679 32103 ft 470 kts 156°
2026-05-03 21:59 -28.63052 -63.90758 32415 ft 469 kts 156°
2026-05-03 21:59 -28.65850 -63.88837 32701 ft 468 kts 157°
2026-05-03 21:59 -28.68639 -63.86922 32978 ft 468 kts 157°
2026-05-03 21:59 -28.71419 -63.85012 33264 ft 467 kts 157°
2026-05-03 22:00 -28.74189 -63.83107 33550 ft 466 kts 157°
2026-05-03 22:00 -28.76969 -63.81195 33833 ft 465 kts 158°
2026-05-03 22:00 -28.79736 -63.79290 34086 ft 464 kts 158°
2026-05-03 22:00 -28.82493 -63.77387 34324 ft 464 kts 157°
2026-05-03 22:01 -28.85261 -63.75469 34466 ft 465 kts 157°
2026-05-03 22:01 -28.88031 -63.73545 34611 ft 467 kts 157°
2026-05-03 22:01 -28.90809 -63.71612 34854 ft 465 kts 157°
2026-05-03 22:01 -28.93534 -63.69713 34999 ft 466 kts 157°
2026-05-03 22:02 -28.99085 -63.65849 34984 ft 466 kts 157°
2026-05-03 22:02 -29.04600 -63.62002 34993 ft 462 kts 157°
2026-05-03 22:03 -29.10074 -63.58183 34998 ft 460 kts 157°
2026-05-03 22:03 -29.15520 -63.54372 34996 ft 458 kts 157°
2026-05-03 22:04 -29.20961 -63.50560 35006 ft 458 kts 157°
2026-05-03 22:04 -29.26402 -63.46744 35007 ft 459 kts 157°
2026-05-03 22:05 -29.31844 -63.42922 35011 ft 462 kts 157°
2026-05-03 22:05 -29.37337 -63.39057 35015 ft 464 kts 157°
2026-05-03 22:06 -29.42845 -63.35175 35010 ft 466 kts 156°
2026-05-03 22:06 -29.48381 -63.31268 35012 ft 467 kts 156°
2026-05-03 22:07 -29.53926 -63.27338 35016 ft 468 kts 156°
2026-05-03 22:07 -29.59444 -63.23417 35014 ft 468 kts 156°
2026-05-03 22:08 -29.64981 -63.19479 35010 ft 467 kts 156°
2026-05-03 22:08 -29.70516 -63.15537 35012 ft 466 kts 156°
2026-05-03 22:09 -29.76023 -63.11611 35027 ft 465 kts 156°
2026-05-03 22:10 -29.84226 -63.05754 35008 ft 463 kts 156°
2026-05-03 22:10 -29.89695 -63.01843 35010 ft 462 kts 156°
2026-05-03 22:11 -29.95184 -62.97913 35031 ft 461 kts 156°
2026-05-03 22:11 -30.00597 -62.94031 35012 ft 461 kts 156°
2026-05-03 22:12 -30.06049 -62.90118 35017 ft 460 kts 156°
2026-05-03 22:12 -30.11494 -62.86204 35018 ft 461 kts 156°
2026-05-03 22:13 -30.16901 -62.82312 35038 ft 461 kts 156°
2026-05-03 22:13 -30.22353 -62.78382 35025 ft 462 kts 156°
2026-05-03 22:14 -30.27812 -62.74440 35023 ft 463 kts 156°
2026-05-03 22:14 -30.33280 -62.70487 35021 ft 463 kts 156°
2026-05-03 22:15 -30.38750 -62.66529 35041 ft 464 kts 156°
2026-05-03 22:15 -30.44237 -62.62552 35028 ft 464 kts 156°
2026-05-03 22:16 -30.49718 -62.58573 35022 ft 464 kts 156°
2026-05-03 22:16 -30.55164 -62.54612 35023 ft 464 kts 156°
2026-05-03 22:17 -30.60641 -62.50624 35046 ft 464 kts 156°
2026-05-03 22:17 -30.66114 -62.46633 35026 ft 463 kts 156°
2026-05-03 22:18 -30.71535 -62.42675 35019 ft 462 kts 156°
2026-05-03 22:18 -30.76974 -62.38699 35024 ft 461 kts 156°
2026-05-03 22:19 -30.82408 -62.34744 35024 ft 460 kts 156°
2026-05-03 22:19 -30.87834 -62.30820 35024 ft 459 kts 156°
2026-05-03 22:20 -30.93257 -62.26888 35027 ft 458 kts 156°
2026-05-03 22:20 -30.98669 -62.22954 35028 ft 458 kts 156°
2026-05-03 22:21 -31.04074 -62.19020 35051 ft 458 kts 156°
2026-05-03 22:21 -31.09486 -62.15073 35036 ft 459 kts 156°
2026-05-03 22:22 -31.14899 -62.11115 35029 ft 459 kts 156°
2026-05-03 22:22 -31.20308 -62.07156 35029 ft 458 kts 156°
2026-05-03 22:23 -31.25666 -62.03188 35050 ft 459 kts 156°
2026-05-03 22:23 -31.31056 -61.99171 35035 ft 459 kts 155°
2026-05-03 22:24 -31.36442 -61.95152 35029 ft 458 kts 155°
2026-05-03 22:24 -31.41818 -61.91140 35029 ft 458 kts 155°
2026-05-03 22:25 -31.47187 -61.87129 35049 ft 457 kts 155°
2026-05-03 22:25 -31.52553 -61.83115 35036 ft 457 kts 155°
2026-05-03 22:26 -31.57903 -61.79108 35028 ft 456 kts 155°
2026-05-03 22:26 -31.63213 -61.75124 35030 ft 455 kts 155°
2026-05-03 22:27 -31.68557 -61.71110 35039 ft 455 kts 155°
2026-05-03 22:27 -31.73898 -61.67092 35031 ft 455 kts 155°
2026-05-03 22:28 -31.79235 -61.63071 35030 ft 455 kts 155°
2026-05-03 22:28 -31.83673 -61.59724 35031 ft 455 kts 155°
2026-05-03 22:29 -31.89879 -61.55037 35036 ft 456 kts 155°
2026-05-03 22:29 -31.95229 -61.51000 35034 ft 457 kts 155°
2026-05-03 22:30 -32.00587 -61.46952 35029 ft 458 kts 155°
2026-05-03 22:30 -32.05052 -61.43573 35030 ft 458 kts 155°
2026-05-03 22:31 -32.10417 -61.39507 35038 ft 459 kts 155°
2026-05-03 22:31 -32.15794 -61.35425 35034 ft 459 kts 155°
2026-05-03 22:32 -32.21141 -61.31360 35040 ft 459 kts 155°
2026-05-03 22:32 -32.26514 -61.27269 35027 ft 459 kts 155°
2026-05-03 22:33 -32.31880 -61.23178 35031 ft 458 kts 155°
2026-05-03 22:33 -32.37241 -61.19085 35027 ft 457 kts 155°
2026-05-03 22:34 -32.42574 -61.15007 35028 ft 456 kts 155°
2026-05-03 22:34 -32.47859 -61.10961 35050 ft 454 kts 155°
2026-05-03 22:35 -32.53172 -61.06888 35036 ft 454 kts 155°
2026-05-03 22:35 -32.58472 -61.02819 35040 ft 453 kts 155°
2026-05-03 22:36 -32.63754 -60.98758 35033 ft 453 kts 155°
2026-05-03 22:36 -32.69047 -60.94683 35042 ft 453 kts 154°
2026-05-03 22:37 -32.74331 -60.90609 35051 ft 453 kts 154°
2026-05-03 22:37 -32.79593 -60.86545 35050 ft 454 kts 154°
2026-05-03 22:38 -32.84898 -60.82441 35051 ft 455 kts 154°
2026-05-03 22:38 -32.90216 -60.78324 35051 ft 456 kts 154°
2026-05-03 22:39 -32.95637 -60.74440 35055 ft 454 kts 158°
2026-05-03 22:39 -33.01137 -60.70718 35048 ft 454 kts 158°
2026-05-03 22:40 -33.06640 -60.66973 35056 ft 455 kts 158°
2026-05-03 22:40 -33.12096 -60.63218 35043 ft 456 kts 157°
2026-05-03 22:41 -33.17591 -60.59414 35038 ft 456 kts 157°
2026-05-03 22:41 -33.23073 -60.55612 35036 ft 455 kts 157°
2026-05-03 22:42 -33.28539 -60.51816 35049 ft 454 kts 158°
2026-05-03 22:42 -33.33999 -60.48032 35027 ft 449 kts 163°
2026-05-03 22:42 -33.36886 -60.46874 35058 ft 431 kts 176°
2026-05-03 22:43 -33.39830 -60.46258 35034 ft 427 kts 179°
2026-05-03 22:43 -33.45710 -60.45363 35035 ft 425 kts 181°
2026-05-03 22:44 -33.51575 -60.44599 35046 ft 424 kts 181°
2026-05-03 22:44 -33.57448 -60.43782 35037 ft 424 kts 181°
2026-05-03 22:45 -33.63269 -60.42955 35040 ft 423 kts 181°
2026-05-03 22:45 -33.69127 -60.42119 35043 ft 424 kts 181°
2026-05-03 22:46 -33.74999 -60.41274 35050 ft 424 kts 181°
2026-05-03 22:46 -33.80853 -60.40419 35040 ft 422 kts 181°
2026-05-03 22:46 -33.83783 -60.39991 34763 ft 427 kts 181°
2026-05-03 22:47 -33.86705 -60.39573 34285 ft 428 kts 181°
2026-05-03 22:47 -33.89660 -60.39149 33784 ft 425 kts 180°
2026-05-03 22:47 -33.92508 -60.38120 33807 ft 439 kts 160°
2026-05-03 22:47 -33.94975 -60.35817 33797 ft 463 kts 139°
2026-05-03 22:48 -33.96908 -60.32650 33855 ft 473 kts 131°
2026-05-03 22:48 -34.00630 -60.26142 33839 ft 471 kts 134°
2026-05-03 22:49 -34.04414 -60.19845 33259 ft 455 kts 134°
2026-05-03 22:49 -34.06287 -60.16763 32339 ft 456 kts 135°
2026-05-03 22:49 -34.08178 -60.13666 31355 ft 460 kts 135°
2026-05-03 22:49 -34.10075 -60.10554 30539 ft 461 kts 134°
2026-05-03 22:50 -34.11962 -60.07440 29818 ft 457 kts 134°
2026-05-03 22:50 -34.13825 -60.04355 29096 ft 452 kts 134°
2026-05-03 22:50 -34.15662 -60.01302 28440 ft 446 kts 134°
2026-05-03 22:50 -34.17477 -59.98285 27766 ft 441 kts 134°
2026-05-03 22:51 -34.19249 -59.95338 27102 ft 438 kts 134°
2026-05-03 22:51 -34.21033 -59.92372 26435 ft 434 kts 134°
2026-05-03 22:51 -34.22805 -59.89425 25774 ft 431 kts 134°
2026-05-03 22:51 -34.24560 -59.86504 25169 ft 427 kts 135°
2026-05-03 22:52 -34.26302 -59.83601 24536 ft 424 kts 135°
2026-05-03 22:52 -34.28030 -59.80720 23945 ft 421 kts 135°
2026-05-03 22:52 -34.29739 -59.77868 23324 ft 417 kts 135°
2026-05-03 22:52 -34.31412 -59.75073 22715 ft 413 kts 135°
2026-05-03 22:53 -34.33082 -59.72278 22161 ft 407 kts 135°
2026-05-03 22:53 -34.34729 -59.69519 21617 ft 401 kts 135°
2026-05-03 22:53 -34.36356 -59.66795 21064 ft 397 kts 135°
2026-05-03 22:53 -34.37967 -59.64096 20556 ft 393 kts 135°
2026-05-03 22:54 -34.39557 -59.61430 20095 ft 388 kts 135°
2026-05-03 22:54 -34.41129 -59.58793 19624 ft 384 kts 135°
2026-05-03 22:54 -34.42689 -59.56175 19123 ft 381 kts 135°
2026-05-03 22:54 -34.44229 -59.53587 18650 ft 377 kts 135°
2026-05-03 22:55 -34.45750 -59.51029 18184 ft 372 kts 135°
2026-05-03 22:55 -34.47235 -59.48530 17678 ft 368 kts 135°
2026-05-03 22:55 -34.48724 -59.46022 17147 ft 364 kts 135°
2026-05-03 22:55 -34.50199 -59.43538 16634 ft 361 kts 135°
2026-05-03 22:56 -34.51657 -59.41080 16140 ft 358 kts 135°
2026-05-03 22:56 -34.53111 -59.38629 15740 ft 357 kts 135°
2026-05-03 22:56 -34.54550 -59.36200 15476 ft 353 kts 135°
2026-05-03 22:56 -34.55970 -59.33799 15235 ft 347 kts 135°
2026-05-03 22:57 -34.57369 -59.31430 14933 ft 343 kts 136°
2026-05-03 22:57 -34.58760 -59.29077 14562 ft 342 kts 136°
2026-05-03 22:57 -34.60136 -59.26748 14161 ft 337 kts 136°
2026-05-03 22:57 -34.61496 -59.24444 13658 ft 335 kts 135°
2026-05-03 22:58 -34.62848 -59.22154 13200 ft 332 kts 135°
2026-05-03 22:58 -34.64160 -59.19925 12948 ft 326 kts 135°
2026-05-03 22:58 -34.65474 -59.17694 12640 ft 323 kts 135°
2026-05-03 22:58 -34.66778 -59.15481 12295 ft 321 kts 135°
2026-05-03 22:59 -34.68071 -59.13284 11977 ft 318 kts 135°
2026-05-03 22:59 -34.69354 -59.11105 11655 ft 315 kts 135°
2026-05-03 22:59 -34.70624 -59.08945 11335 ft 313 kts 135°
2026-05-03 22:59 -34.71887 -59.06795 11016 ft 311 kts 135°
2026-05-03 23:00 -34.73137 -59.04665 10698 ft 308 kts 134°
2026-05-03 23:00 -34.74375 -59.02555 10478 ft 303 kts 135°
2026-05-03 23:00 -34.75554 -59.00535 10355 ft 291 kts 135°
2026-05-03 23:00 -34.76698 -58.98571 10234 ft 278 kts 135°
2026-05-03 23:01 -34.77792 -58.96693 10124 ft 267 kts 135°
2026-05-03 23:01 -34.78854 -58.94878 9972 ft 261 kts 136°
2026-05-03 23:01 -34.79905 -58.93087 9728 ft 258 kts 135°
2026-05-03 23:01 -34.80941 -58.91321 9466 ft 255 kts 135°
2026-05-03 23:02 -34.81966 -58.89572 9228 ft 253 kts 135°
2026-05-03 23:02 -34.82983 -58.87836 8991 ft 250 kts 135°
2026-05-03 23:02 -34.83987 -58.86119 8736 ft 248 kts 135°
2026-05-03 23:02 -34.84966 -58.84444 8536 ft 244 kts 134°
2026-05-03 23:03 -34.85947 -58.82763 8287 ft 243 kts 134°
2026-05-03 23:03 -34.86928 -58.81085 8062 ft 245 kts 134°
2026-05-03 23:03 -34.87927 -58.79378 7841 ft 250 kts 134°
2026-05-03 23:03 -34.88951 -58.77627 7594 ft 256 kts 133°
2026-05-03 23:04 -34.89990 -58.75846 7334 ft 258 kts 133°
2026-05-03 23:04 -34.91021 -58.74070 7090 ft 256 kts 132°
2026-05-03 23:04 -34.92041 -58.72312 6865 ft 253 kts 132°
2026-05-03 23:04 -34.93054 -58.70567 6617 ft 251 kts 132°
2026-05-03 23:05 -34.94060 -58.68834 6348 ft 250 kts 132°
2026-05-03 23:05 -34.95057 -58.67116 6055 ft 246 kts 131°
2026-05-03 23:05 -34.96035 -58.65429 5758 ft 241 kts 131°
2026-05-03 23:05 -34.96992 -58.63778 5478 ft 236 kts 131°
2026-05-03 23:06 -34.97929 -58.62160 5200 ft 230 kts 131°
2026-05-03 23:06 -34.98826 -58.60610 4984 ft 221 kts 131°
2026-05-03 23:06 -34.99681 -58.59130 4909 ft 204 kts 131°
2026-05-03 23:06 -35.00463 -58.57776 4794 ft 187 kts 132°
2026-05-03 23:07 -35.01181 -58.56533 4710 ft 174 kts 132°
2026-05-03 23:07 -35.01875 -58.55338 4635 ft 172 kts 132°
2026-05-03 23:07 -35.02581 -58.54125 4587 ft 178 kts 132°
2026-05-03 23:07 -35.03311 -58.52869 4431 ft 185 kts 132°
2026-05-03 23:08 -35.04036 -58.51571 4196 ft 187 kts 123°
2026-05-03 23:08 -35.04311 -58.50005 3967 ft 194 kts 92°
2026-05-03 23:08 -35.03886 -58.48459 3745 ft 200 kts 58°
2026-05-03 23:08 -35.02829 -58.47375 3525 ft 201 kts 21°
2026-05-03 23:09 -35.01497 -58.47096 3428 ft 189 kts 353°
2026-05-03 23:09 -35.00152 -58.47137 3248 ft 200 kts 356°
2026-05-03 23:09 -34.98768 -58.47167 3002 ft 197 kts 348°
2026-05-03 23:09 -34.97468 -58.47564 2753 ft 189 kts 337°
2026-05-03 23:10 -34.96237 -58.48023 2547 ft 179 kts 338°
2026-05-03 23:10 -34.95053 -58.48446 2286 ft 170 kts 340°
2026-05-03 23:10 -34.93947 -58.48832 2018 ft 162 kts 339°
2026-05-03 23:10 -34.92852 -58.49214 1812 ft 166 kts 338°
2026-05-03 23:11 -34.91731 -58.49605 1582 ft 167 kts 340°
2026-05-03 23:11 -34.90616 -58.49991 1334 ft 166 kts 338°
2026-05-03 23:11 -34.89500 -58.50380 1115 ft 168 kts 338°
2026-05-03 23:11 -34.88372 -58.50772 885 ft 168 kts 339°
2026-05-03 23:12 -34.87258 -58.51160 736 ft 163 kts 342°
2026-05-03 23:12 -34.86197 -58.51528 591 ft 153 kts 343°
2026-05-03 23:12 -34.85204 -58.51873 416 ft 145 kts 345°
2026-05-03 23:12 -34.84245 -58.52208 280 ft 142 kts 345°
2026-05-03 23:13 -34.83306 -58.52547 143 ft 139 kts 345°
2026-05-03 23:13 -34.82403 -58.52854 83 ft 123 kts 346°
2026-05-03 23:13 -34.81721 -58.53085 73 ft 81 kts 343°
2026-05-03 23:13 -34.81326 -58.53223 84 ft 39 kts 344°
2026-05-03 23:14 -34.81189 -58.53291 85 ft 10 kts 307°
2026-05-03 23:14 -34.81169 -58.53376 79 ft 11 kts 274°
2026-05-03 23:14 -34.81167 -58.53403 74 ft 0 kts 274°
2026-05-03 23:15 -34.81167 -58.53404 75 ft 1 kts 274°
2026-05-03 23:15 -34.81166 -58.53423 77 ft 4 kts 275°
2026-05-03 23:15 -34.81164 -58.53462 76 ft 5 kts 275°
2026-05-03 23:15 -34.81162 -58.53510 75 ft 6 kts 271°
2026-05-03 23:16 -34.81165 -58.53559 75 ft 6 kts 257°
2026-05-03 23:16 -34.81187 -58.53597 72 ft 6 kts 209°
2026-05-03 23:16 -34.81225 -58.53593 72 ft 6 kts 169°
2026-05-03 23:16 -34.81264 -58.53588 71 ft 6 kts 175°
2026-05-03 23:17 -34.81302 -58.53588 68 ft 5 kts 180°
2026-05-03 23:17 -34.81340 -58.53589 69 ft 5 kts 184°
2026-05-03 23:17 -34.81376 -58.53594 71 ft 5 kts 190°
2026-05-03 23:17 -34.81411 -58.53608 69 ft 5 kts 201°
2026-05-03 23:18 -34.81446 -58.53619 66 ft 5 kts 196°
2026-05-03 23:18 -34.81479 -58.53634 74 ft 5 kts 202°
2026-05-03 23:18 -34.81500 -58.53646 74 ft 5 kts 206°
2026-05-03 23:18 -34.81531 -58.53666 74 ft 5 kts 210°
2026-05-03 23:19 -34.81561 -58.53691 74 ft 6 kts 219°
2026-05-03 23:19 -34.81591 -58.53724 64 ft 6 kts 223°
2026-05-03 23:19 -34.81622 -58.53760 74 ft 6 kts 224°
2026-05-03 23:19 -34.81652 -58.53795 74 ft 0 kts 223°
2026-05-03 23:20 -34.81653 -58.53797 74 ft 1 kts 225°
2026-05-03 23:20 -34.81660 -58.53819 67 ft 4 kts 264°
2026-05-03 23:20 -34.81646 -58.53845 71 ft 4 kts 328°
2026-05-03 23:21 -34.81622 -58.53863 71 ft 4 kts 323°
2026-05-03 23:21 -34.81599 -58.53884 74 ft 4 kts 324°
2026-05-03 23:21 -34.81578 -58.53904 72 ft 3 kts 321°
2026-05-03 23:21 -34.81561 -58.53920 67 ft 3 kts 322°
2026-05-03 23:22 -34.81547 -58.53934 69 ft 0 kts 322°